Wind_Speed
55 54 53 52 52 54 53 50 48 49 50 50 48 45 43 42 41 33 31 30 30 27 23 26 24 24 31 43 49 52 56 58 58 61 62 59 60 53 47 46 48 47 48
64 60 57 55 55 56 55 55 54 50 48 50 50 48 46 41 41 38 33 33 33 32 25 23 23 25 34 39 47 53 52 55 52 52 46 54 47 52 54 54 51 57 51
66 66 61 59 58 57 58 59 60 56 54 52 48 47 46 41 41 42 38 39 36 35 31 28 23 21 35 36 41 46 54 50 48 48 48 45 45 48 53 57 58 55 56
69 68 65 61 60 60 60 60 64 61 59 58 55 49 47 47 44 45 45 43 41 36 36 31 26 26 21 39 42 43 49 53 61 60 58 53 51 51 51 54 56 59 60
58 57 64 63 60 62 65 66 66 65 61 62 60 55 53 52 52 51 51 49 47 41 38 33 27 26 24 29 47 51 53 54 53 55 54 56 59 62 55 52 52 56 52
53 61 64 65 66 64 62 67 67 63 56 59 60 58 57 58 58 56 53 51 51 43 40 38 30 27 26 27 27 32 38 45 53 59 56 49 51 53 54 45 36 34 35
70 79 82 67 73 68 60 57 60 59 58 53 55 56 57 59 63 64 59 53 52 48 43 40 36 30 27 26 26 28 30 26 31 35 33 33 33 35 39 34 31 34 35
78 87 85 85 68 69 60 52 52 52 52 49 57 56 58 54 58 60 57 54 55 52 47 39 41 33 30 27 28 26 26 29 29 31 31 33 33 32 34 35 28 30 31
86 85 84 80 78 76 61 53 51 50 46 51 50 56 53 52 55 57 56 54 49 51 48 41 39 33 33 31 28 28 25 27 29 28 29 33 31 25 25 23 25 25 23
86 82 76 80 81 81 66 52 50 56 45 43 44 43 48 42 44 45 44 43 42 45 50 43 39 36 35 32 29 25 24 26 28 29 30 30 33 34 26 24 25 22 21
91 90 87 79 81 81 76 67 59 59 50 40 39 36 38 37 41 35 35 44 41 41 49 50 42 37 37 32 28 24 23 24 25 29 31 31 32 36 31 27 26 25 23
94 92 92 88 74 84 83 71 68 55 52 45 40 43 41 40 41 42 46 50 47 47 46 49 44 39 36 31 29 24 20 21 24 28 32 31 33 36 33 31 27 30 30
98 98 96 93 85 75 72 72 70 60 58 46 46 44 41 39 49 47 61 60 53 53 45 45 44 40 38 32 30 25 24 25 27 28 29 31 32 34 35 35 32 32 36
101 100 97 95 88 75 69 65 64 54 52 52 51 47 44 46 48 51 56 52 52 57 49 46 42 41 37 34 33 29 29 27 31 30 30 31 29 36 38 36 32 35 37
91 91 94 94 90 82 73 69 63 63 60 56 57 56 54 59 58 63 60 62 54 59 56 54 40 38 43 39 36 35 35 36 35 33 32 31 31 29 35 42 39 38 39
75 78 80 85 84 88 80 77 75 66 61 60 61 60 59 69 64 66 67 63 56 59 57 57 52 50 46 51 50 40 41 42 37 34 35 30 32 32 32 34 41 42 43
64 62 70 75 78 83 82 80 78 75 63 62 65 68 71 73 74 72 78 69 62 57 57 59 56 50 48 45 45 41 42 46 44 46 42 36 34 36 37 38 38 42 46
60 55 57 67 74 75 70 74 77 72 72 73 72 71 80 78 78 77 74 74 63 57 59 61 61 55 59 54 44 39 43 48 48 39 44 47 37 40 42 42 41 39 43
55 53 51 58 64 69 66 74 72 75 80 74 77 73 84 77 75 82 77 76 67 62 60 60 63 57 62 60 51 46 44 47 49 53 46 44 44 43 47 44 42 39 39
49 51 52 48 52 56 60 67 72 83 86 80 87 86 88 87 77 79 77 76 72 62 63 66 68 64 64 65 56 55 53 50 57 50 48 51 48 51 49 46 44 40 41
47 48 49 49 54 54 50 64 74 77 78 84 92 86 88 88 90 86 83 83 80 74 68 70 71 68 67 65 57 58 59 56 51 43 66 63 62 55 50 48 46 45 43
43 44 48 53 56 56 52 62 74 82 88 85 88 89 81 84 84 90 86 83 76 76 75 74 77 73 70 62 53 58 60 57 62 66 68 63 58 54 52 51 48 44 44
43 46 51 53 54 53 57 68 72 81 86 85 86 87 88 80 74 83 87 86 80 76 75 75 75 78 73 69 71 70 70 67 65 62 55 53 54 52 53 54 51 49 51
46 49 51 58 61 59 61 69 74 79 83 84 86 86 85 84 75 82 87 85 82 82 77 80 79 81 75 65 63 66 70 73 71 55 52 50 60 59 59 56 58 56 56
45 50 59 62 64 70 71 72 73 79 81 84 84 88 84 82 91 80 82 86 89 87 83 81 83 84 83 83 76 77 76 75 73 72 72 72 71 68 68 67 68 66 60
50 55 64 68 69 69 68 65 71 79 83 84 84 87 85 88 89 91 82 87 91 94 90 87 86 87 88 88 91 93 91 89 87 83 76 75 73 69 62 59 63 64 60
Wind_Direction
279 280 281 281 282 282 281 277 277 277 278 278 277 277 277 276 275 278 285 292 300 305 296 307 309 279 253 246 239 242 243 243 252 254 256 263 264 262 263 262 266 267 273
277 275 275 277 279 282 283 282 279 278 277 277 276 277 280 276 273 279 283 287 293 297 294 305 300 285 265 250 244 243 245 248 254 255 257 258 261 261 261 261 269 275 269
276 274 273 273 276 277 279 279 279 278 277 276 275 274 274 273 275 279 281 284 287 291 291 290 296 310 255 267 259 253 245 247 251 253 255 251 254 260 263 265 270 264 270
282 272 272 270 271 276 276 275 276 277 277 276 276 275 274 273 271 276 280 283 283 283 287 288 294 285 285 260 267 271 260 257 257 260 258 258 259 261 268 267 272 269 270
273 272 274 270 271 276 276 274 272 275 275 275 274 274 274 271 270 272 277 277 278 281 278 282 282 288 282 268 259 263 266 270 271 268 270 269 269 271 277 280 284 280 280
261 283 286 281 279 283 278 274 273 277 276 273 275 274 272 273 274 272 272 274 276 276 274 277 275 281 286 275 271 270 272 274 270 270 273 275 274 273 273 280 276 279 280
260 271 277 281 285 284 280 274 271 275 279 285 281 278 278 276 275 274 272 272 271 271 267 268 270 276 278 276 280 284 276 303 279 272 274 273 273 273 270 276 280 283 285
257 263 271 274 274 281 284 279 278 277 280 275 286 286 277 274 272 270 273 271 268 264 262 263 266 268 271 274 274 283 298 299 304 281 272 266 271 275 270 275 280 285 290
263 262 267 270 272 272 272 275 280 277 272 277 274 286 277 271 265 268 270 273 269 261 259 251 253 258 262 268 275 274 284 294 306 291 276 265 266 277 274 280 288 289 285
269 264 261 266 268 270 263 262 265 270 274 268 268 270 279 279 270 267 266 271 272 259 253 249 244 248 256 260 268 268 279 290 295 301 280 269 260 262 276 281 288 278 262
265 265 262 255 259 261 264 260 254 260 262 266 270 268 277 271 262 254 275 272 266 249 247 243 242 242 251 258 262 264 270 286 291 293 295 273 258 256 264 274 276 275 243
264 261 261 260 252 257 257 258 258 255 255 254 257 266 273 256 250 258 262 256 248 241 236 239 239 242 245 254 258 255 262 274 286 290 295 281 262 258 262 265 264 262 254
262 260 259 256 254 245 252 255 258 248 248 238 237 250 248 245 244 252 254 249 247 234 240 240 234 238 245 253 257 260 260 266 280 293 288 290 268 263 264 268 272 260 257
265 259 256 253 252 246 239 243 248 248 238 236 227 238 232 238 243 248 240 249 253 238 241 232 235 240 245 250 254 258 267 272 279 287 284 286 284 266 263 268 266 273 273
264 258 254 251 249 245 233 230 237 242 240 234 231 223 234 223 229 236 240 245 248 242 243 236 236 248 251 251 252 255 265 275 278 285 288 277 284 282 273 265 271 266 270
262 257 252 249 245 241 236 226 231 230 233 234 228 225 226 224 230 235 235 240 244 240 240 240 235 234 241 249 255 257 263 274 271 281 283 280 280 288 288 275 269 270 271
261 253 248 246 243 240 236 232 222 227 228 223 222 222 219 234 236 240 236 239 239 241 237 239 234 227 236 238 247 256 262 263 276 281 276 281 281 283 288 287 284 274 266
257 250 241 241 240 239 234 227 223 222 218 229 230 233 223 234 236 233 237 237 241 235 236 236 229 228 231 237 238 252 258 252 277 269 270 281 286 284 283 284 287 282 271
252 248 238 235 234 234 230 228 223 223 220 223 223 230 230 235 238 239 240 239 238 234 235 231 228 231 238 239 241 238 243 257 268 274 267 276 285 286 282 281 283 284 284
242 238 231 225 226 224 223 223 224 224 226 223 224 228 228 231 233 234 235 235 232 234 232 230 233 230 235 240 239 243 244 253 266 263 268 280 284 288 280 277 281 288 286
235 233 226 216 220 208 214 219 214 216 220 224 224 231 230 232 229 231 233 235 235 235 238 234 234 238 236 238 247 250 250 250 249 265 269 275 280 281 277 275 279 287 286
233 226 218 211 211 197 202 218 219 222 221 226 228 227 230 230 233 233 236 232 237 236 234 237 234 235 237 236 239 239 250 257 247 256 263 274 281 277 277 277 280 284 286
224 221 217 209 207 202 211 222 223 225 225 231 230 227 229 230 233 236 237 237 232 232 236 236 236 235 238 237 235 242 243 244 250 253 254 262 272 267 279 275 276 278 285
220 215 214 202 199 198 213 221 223 229 232 233 233 233 235 229 233 237 239 240 239 236 238 237 237 235 232 229 233 241 240 242 246 250 255 249 261 268 268 267 273 277 282
221 217 211 211 211 211 215 223 227 228 233 235 238 237 238 234 232 238 241 241 242 241 240 238 236 232 232 230 231 233 233 240 247 255 260 264 264 262 270 269 271 271 278
216 213 211 213 215 221 228 227 226 227 230 234 237 241 241 238 237 239 240 241 241 242 240 237 234 233 235 236 235 237 240 245 247 251 258 261 264 264 265 267 268 270 274
Height
10720 10722 10721 10723 10724 10726 10727 10727 10725 10724 10723 10723 10722 10723 10725 10723 10719 10720 10718 10716 10713 10711 10708 10705 10702 10700 10700 10701 10704 10705 10706 10708 10710 10711 10712 10712 10713 10713 10712 10712 10714 10713 10712
10705 10709 10708 10710 10712 10713 10716 10716 10714 10714 10713 10712 10713 10712 10713 10716 10711 10710 10711 10710 10709 10706 10703 10701 10698 10694 10693 10695 10696 10698 10698 10700 10701 10702 10702 10703 10703 10704 10703 10704 10705 10704 10703
10690 10691 10697 10696 10696 10703 10703 10704 10702 10702 10701 10701 10703 10704 10703 10705 10707 10702 10705 10702 10702 10700 10698 10695 10693 10691 10689 10687 10690 10691 10691 10692 10693 10695 10695 10695 10696 10695 10695 10695 10694 10694 10692
10680 10676 10680 10685 10683 10686 10690 10692 10692 10691 10689 10688 10689 10693 10695 10696 10697 10694 10694 10695 10694 10694 10692 10691 10688 10686 10685 10683 10682 10683 10687 10687 10687 10688 10689 10687 10686 10686 10685 10685 10683 10682 10681
10669 10666 10662 10665 10670 10675 10677 10675 10677 10679 10680 10677 10676 10680 10683 10683 10683 10686 10684 10685 10685 10686 10684 10684 10682 10681 10679 10678 10677 10677 10677 10677 10677 10678 10678 10678 10677 10677 10676 10676 10673 10671 10670
10653 10651 10648 10644 10648 10658 10664 10662 10663 10664 10668 10668 10668 10670 10671 10671 10671 10670 10673 10673 10673 10677 10675 10675 10676 10675 10674 10673 10672 10671 10670 10668 10668 10667 10667 10666 10666 10666 10667 10666 10664 10663 10662
10637 10634 10636 10632 10635 10641 10647 10651 10653 10652 10652 10653 10657 10658 10659 10657 10656 10655 10657 10662 10662 10664 10666 10666 10667 10668 10667 10666 10665 10664 10663 10661 10659 10658 10659 10658 10658 10658 10657 10658 10657 10656 10654
10625 10622 10622 10626 10627 10627 10635 10641 10642 10641 10643 10643 10645 10646 10648 10648 10643 10640 10644 10647 10651 10654 10653 10656 10657 10658 10658 10658 10657 10657 10654 10652 10651 10650 10651 10651 10651 10651 10650 10650 10649 10648 10646
10599 10605 10606 10608 10616 10617 10622 10628 10631 10633 10633 10633 10635 10633 10632 10633 10631 10630 10631 10633 10637 10641 10642 10644 10644 10648 10648 10648 10649 10649 10649 10646 10644 10643 10643 10644 10645 10644 10643 10642 10642 10641 10641
10570 10578 10586 10592 10595 10600 10608 10613 10619 10621 10623 10624 10625 10621 10620 10620 10620 10620 10620 10621 10624 10628 10631 10631 10635 10637 10638 10639 10640 10640 10641 10639 10638 10636 10636 10637 10637 10638 10638 10636 10636 10636 10637
10547 10549 10555 10572 10578 10581 10588 10593 10602 10605 10608 10612 10610 10612 10612 10610 10609 10609 10607 10610 10614 10615 10620 10621 10622 10627 10629 10629 10631 10632 10632 10632 10631 10630 10629 10629 10630 10631 10632 10632 10630 10631 10631
10519 10527 10528 10536 10559 10561 10569 10573 10577 10586 10587 10596 10598 10599 10599 10598 10599 10598 10594 10597 10601 10602 10606 10611 10614 10614 10620 10620 10621 10623 10625 10625 10624 10623 10622 10621 10623 10624 10625 10625 10625 10624 10624
10493 10498 10504 10510 10521 10540 10542 10546 10551 10565 10569 10574 10578 10582 10586 10584 10585 10586 10585 10586 10589 10591 10596 10600 10604 10605 10609 10611 10611 10614 10616 10617 10617 10617 10615 10615 10615 10616 10616 10617 10618 10618 10617
10453 10460 10469 10480 10490 10507 10518 10525 10530 10540 10546 10554 10558 10561 10564 10565 10568 10569 10569 10574 10576 10581 10584 10589 10592 10596 10598 10600 10602 10605 10607 10609 10609 10610 10610 10608 10608 10608 10609 10609 10610 10611 10612
10414 10421 10432 10444 10458 10473 10490 10498 10507 10512 10521 10529 10535 10539 10544 10546 10543 10543 10549 10558 10561 10569 10574 10577 10583 10585 10587 10590 10592 10595 10596 10599 10601 10601 10602 10602 10602 10601 10601 10600 10601 10603 10604
10384 10389 10401 10412 10428 10441 10460 10472 10479 10488 10498 10506 10513 10517 10522 10522 10519 10519 10531 10538 10547 10556 10561 10562 10571 10572 10574 10577 10581 10585 10586 10588 10590 10592 10592 10593 10594 10594 10594 10593 10592 10592 10593
10352 10362 10371 10383 10396 10410 10430 10445 10457 10466 10478 10486 10489 10494 10499 10500 10507 10509 10514 10523 10532 10539 10547 10548 10556 10559 10560 10563 10569 10572 10575 10577 10579 10581 10583 10584 10584 10585 10585 10585 10584 10583 10583
10329 10338 10345 10354 10369 10385 10408 10423 10432 10446 10452 10457 10463 10471 10477 10483 10489 10494 10498 10507 10517 10524 10532 10534 10542 10545 10549 10552 10557 10562 10563 10564 10567 10568 10570 10573 10574 10574 10576 10576 10574 10573 10572
10309 10317 10326 10334 10346 10361 10384 10398 10413 10420 10426 10434 10441 10448 10456 10463 10471 10477 10483 10493 10500 10507 10515 10523 10529 10534 10537 10540 10546 10549 10552 10552 10556 10555 10559 10562 10563 10564 10565 10565 10564 10563 10562
10290 10297 10306 10320 10330 10343 10359 10373 10387 10397 10402 10410 10417 10426 10432 10443 10454 10462 10468 10475 10484 10492 10501 10509 10514 10520 10525 10527 10532 10536 10540 10546 10543 10543 10547 10550 10551 10553 10553 10553 10553 10552 10551
10274 10282 10293 10304 10312 10326 10346 10355 10362 10369 10378 10386 10396 10405 10416 10425 10436 10443 10452 10461 10469 10477 10485 10493 10499 10506 10512 10517 10524 10527 10530 10533 10536 10530 10535 10538 10540 10543 10541 10541 10541 10540 10539
10262 10270 10280 10290 10299 10312 10326 10336 10346 10355 10360 10367 10373 10386 10398 10410 10418 10429 10437 10446 10453 10460 10468 10475 10484 10490 10496 10506 10508 10508 10512 10517 10521 10524 10523 10528 10526 10530 10528 10527 10529 10529 10528
10250 10257 10267 10279 10288 10297 10307 10317 10328 10334 10344 10348 10359 10369 10380 10393 10402 10411 10419 10427 10436 10442 10449 10457 10467 10474 10480 10486 10491 10495 10496 10499 10501 10507 10512 10518 10517 10515 10515 10515 10516 10518 10517
10240 10246 10256 10268 10276 10283 10295 10304 10313 10321 10327 10334 10342 10353 10365 10378 10387 10394 10403 10412 10420 10426 10433 10443 10451 10458 10465 10466 10477 10477 10480 10483 10487 10493 10497 10506 10505 10501 10501 10502 10503 10505 10504
10234 10240 10246 10252 10264 10270 10278 10288 10297 10306 10312 10319 10329 10339 10348 10362 10372 10379 10387 10393 10400 10406 10418 10425 10430 10437 10444 10450 10455 10459 10463 10467 10474 10478 10481 10485 10489 10489 10489 10490 10490 10490 10490
10224 10232 10237 10244 10254 10262 10270 10278 10285 10289 10297 10304 10313 10320 10329 10340 10350 10361 10367 10372 10376 10386 10396 10404 10411 10416 10422 10429 10435 10440 10444 10448 10455 10463 10464 10467 10470 10472 10474 10476 10476 10476 10475